Simultaneous Nadir Overpasses (SNOs) Predictions

Prediction of SNOs near US between AQUA and NPP Satellite Orbit:

Table of predicted SNOs near US for the next 10.0 days since TLE Epoch: 10/31/2015
Index Date (AQUA) Time (AQUA) AQUA Lat,Lon Date (NPP) Time (NPP) NPP Lat,Lon Distance(km) Time Diff (sec)
1 10/31/2015 18:16:59 49.94, -80.21 10/31/2015 18:13:10 49.70, -81.69 108.81 229
2 10/31/2015 19:55:52 50.00,-104.96 10/31/2015 19:54:38 49.66,-107.04 153.97 74
3 10/31/2015 21:29:47 32.21,-123.78 10/31/2015 21:30:59 31.73,-126.20 234.99 72
4 11/03/2015 07:45:40 20.04, -89.57 11/03/2015 07:37:52 20.00, -89.36 21.79 468
5 11/03/2015 09:21:31 31.00,-111.58 11/03/2015 09:16:13 31.06,-111.87 27.78 318
6 11/06/2015 06:30:20 46.47, -65.04 11/06/2015 06:33:04 46.84, -67.01 155.34 164
7 11/06/2015 08:08:15
